Wetbulb
37.32 37.52 37.00 36.94 36.63 36.37 35.00 34.58 37.76 37.47 36.27 35.10 34.41 34.46 35.65 32.81 31.29 30.09 29.94 30.39 30.10 30.42 30.94 30.89 32.24 34.51 35.02 35.85 36.11 35.68 35.18 35.86 33.62 37.09 39.42 40.74 41.47 43.48 45.88 47.84 48.41 48.67 48.91
37.95 37.73 37.13 36.92 36.45 35.32 34.82 37.30 38.43 37.15 35.69 34.18 35.94 36.37 35.38 34.19 31.69 30.47 29.34 30.49 31.13 30.92 30.81 30.79 31.88 34.37 33.48 33.61 33.53 33.41 33.55 34.78 34.50 33.75 36.97 38.26 39.69 42.86 44.31 45.00 46.81 47.49 47.79
37.53 37.11 36.32 36.05 37.65 35.26 35.73 38.62 38.21 35.40 34.49 35.87 35.85 35.04 34.74 34.51 33.78 32.58 32.33 32.77 32.91 32.44 32.27 32.15 32.29 32.96 33.15 34.05 33.16 32.33 32.92 34.59 35.58 34.05 34.12 38.10 38.99 40.98 43.54 45.42 46.84 47.45 47.21
36.93 36.69 36.33 35.46 35.94 37.44 38.15 38.18 37.91 36.65 34.78 33.71 34.02 35.29 34.45 34.90 33.72 33.63 33.90 33.02 32.71 32.96 33.26 32.99 32.59 32.61 32.10 32.42 33.47 32.61 32.46 32.62 33.15 33.16 35.17 35.93 37.62 39.40 41.25 42.10 43.59 45.88 45.46
36.04 36.77 38.91 39.00 38.52 38.97 37.46 36.71 38.11 36.12 33.90 32.83 32.81 34.34 34.37 34.06 33.91 34.20 34.28 33.66 33.51 32.91 33.03 32.94 32.69 33.32 34.31 33.72 32.98 33.08 32.22 31.64 31.96 32.12 32.46 34.90 35.51 37.05 37.71 41.58 42.52 44.61 44.48
35.68 35.94 39.56 39.70 37.82 36.47 35.60 35.38 37.03 35.78 34.06 34.09 33.26 33.68 33.51 34.42 35.36 35.35 34.21 32.66 32.72 32.50 30.30 30.71 32.50 34.09 34.19 34.84 35.29 34.87 33.65 31.57 31.27 32.25 31.81 31.52 32.91 35.36 38.76 40.70 41.15 42.49 40.79
36.55 36.56 38.70 39.66 38.66 35.69 36.87 36.59 35.80 35.42 34.58 33.68 33.15 33.08 32.40 32.73 34.65 35.36 34.77 33.81 32.38 32.10 30.80 30.92 31.88 33.57 34.18 34.05 33.45 34.21 34.58 35.13 32.18 33.12 31.59 33.79 34.62 36.11 38.59 40.12 42.51 42.30 42.21
36.01 35.54 37.79 38.53 36.30 36.46 37.45 36.86 36.46 35.77 33.82 33.35 32.87 32.89 32.82 32.73 34.09 34.00 34.05 33.24 32.58 32.35 32.19 32.18 32.53 32.72 32.89 33.77 34.13 32.90 32.58 33.36 33.87 34.36 34.26 34.78 34.87 36.85 37.52 40.64 43.60 44.19 43.92
34.64 34.78 36.84 37.71 35.91 35.69 36.03 36.10 37.00 35.23 33.99 33.23 32.27 30.96 32.43 32.99 33.41 34.08 34.13 32.86 32.35 32.32 33.14 33.44 33.83 33.54 33.20 33.70 33.75 32.49 32.31 34.28 36.67 36.66 36.70 35.81 35.51 35.77 36.75 40.92 42.16 41.96 41.14
34.42 34.60 36.69 36.68 36.15 35.66 35.56 34.90 36.08 34.82 33.39 33.44 32.50 33.46 33.65 32.83 34.00 35.14 34.69 33.05 31.70 31.84 33.05 32.99 33.70 33.53 33.42 34.13 34.21 33.83 32.22 32.89 32.12 33.21 34.67 35.63 36.12 36.95 35.88 42.80 43.42 42.22 41.66
35.36 35.62 36.00 36.48 35.18 34.52 34.09 33.35 33.70 32.43 32.67 32.93 32.54 33.31 33.99 33.88 33.85 35.52 36.21 33.50 32.26 31.70 31.54 31.56 32.54 33.10 34.03 34.34 34.08 33.69 32.27 31.93 32.02 33.20 35.82 38.56 40.92 42.16 43.61 45.04 45.41 44.17 42.09
36.38 35.05 35.19 35.36 34.89 34.37 32.91 32.96 32.07 31.28 30.71 31.21 31.62 32.29 33.32 34.52 34.82 35.44 35.72 35.86 34.49 32.89 31.75 31.99 32.51 33.64 33.87 33.08 32.46 32.98 32.24 31.99 37.35 38.26 39.11 38.95 39.51 41.49 42.35 42.95 43.66 43.13 43.84
34.00 34.93 35.16 35.29 35.28 35.00 33.99 32.58 32.21 31.56 29.83 30.10 30.36 30.45 31.15 33.21 34.05 34.41 35.26 35.72 34.56 32.70 33.56 33.86 34.11 34.30 33.62 31.13 31.47 32.27 33.00 36.17 35.98 36.40 36.14 35.31 35.93 40.89 42.24 41.95 42.06 41.44 40.28
34.89 35.07 35.19 34.53 34.29 34.34 34.43 34.20 32.78 31.51 30.56 30.39 29.69 29.28 30.42 30.64 31.73 32.76 35.28 36.28 36.07 34.91 33.62 34.53 33.60 31.99 32.36 31.91 32.20 33.56 35.33 36.43 35.88 35.95 35.70 35.90 37.99 37.96 38.08 40.29 39.69 39.57 37.72
35.09 35.19 34.35 34.32 33.98 33.39 33.56 33.23 32.49 32.95 31.63 30.43 30.41 30.61 30.02 29.67 30.89 32.74 33.38 34.07 34.77 33.38 34.99 34.35 32.37 32.51 32.24 32.19 33.33 34.33 36.27 36.01 35.96 36.91 37.78 37.55 37.04 36.65 34.22 37.68 37.82 38.54 37.08
32.89 33.17 32.99 32.96 33.08 32.96 32.12 31.95 33.37 32.61 32.92 32.96 32.67 31.70 32.22 32.59 32.89 33.57 33.88 33.81 33.42 33.08 34.63 33.32 32.79 33.59 33.56 33.96 34.16 35.67 36.58 35.73 37.54 39.05 38.13 37.33 36.64 36.66 35.94 36.79 37.92 36.37 35.57
31.77 31.29 30.96 30.68 30.60 30.72 30.76 30.48 29.48 31.81 32.76 32.49 31.96 32.02 32.39 32.27 33.15 33.51 33.71 33.12 32.47 32.22 30.95 31.46 31.77 32.41 32.74 34.07 34.60 35.30 35.27 36.41 38.95 38.90 38.12 36.62 36.80 36.73 36.46 34.97 35.99 35.88 35.01
31.70 31.05 30.21 29.90 29.60 29.25 28.64 28.82 28.85 28.04 27.28 28.22 30.29 30.42 31.00 31.79 31.76 31.91 32.29 32.38 30.47 30.65 29.84 29.58 29.86 31.06 31.92 33.03 33.93 34.31 34.86 35.40 36.13 36.27 36.19 35.89 35.58 36.10 36.48 35.25 34.88 35.43 36.13
30.90 30.36 30.10 29.74 29.82 29.33 29.09 28.56 28.34 28.07 27.59 27.32 27.97 28.27 29.67 30.15 30.11 30.42 30.75 29.31 29.00 29.46 30.06 29.93 30.17 30.32 30.81 31.63 32.11 33.21 33.62 34.04 33.99 34.01 34.69 34.39 34.48 36.60 35.46 35.62 35.11 33.86 33.99
31.31 30.10 30.11 29.83 29.57 29.20 28.79 28.40 28.22 27.77 27.37 27.24 27.06 27.24 28.41 27.93 26.25 26.39 27.76 28.10 27.87 28.28 28.73 29.75 30.63 31.02 30.92 30.96 30.92 31.09 31.45 32.08 32.62 33.47 33.75 34.24 34.07 35.26 35.44 35.58 35.46 34.52 34.46
30.98 30.57 29.66 29.83 29.17 29.21 29.19 28.10 28.36 28.18 27.29 27.00 27.65 28.43 28.41 27.29 26.65 26.45 26.31 26.14 26.68 26.97 27.56 28.26 29.14 29.37 29.55 30.17 30.88 30.38 30.10 30.40 31.00 31.60 31.98 32.88 32.82 33.32 35.05 35.44 35.10 34.95 34.63
28.45 29.92 30.06 29.67 29.30 29.14 28.99 29.12 28.72 28.54 28.08 28.08 28.36 28.67 28.62 28.20 27.47 27.33 27.37 27.38 27.53 27.65 27.79 27.67 27.91 28.34 28.62 28.15 28.81 28.82 28.68 29.57 29.94 30.11 30.12 30.51 31.20 32.10 33.26 33.93 34.16 34.04 34.36
28.00 27.69 27.47 27.12 27.90 26.83 27.24 27.22 28.78 27.96 28.24 28.11 28.36 28.40 27.97 28.00 27.96 27.79 27.93 28.15 28.37 28.17 28.30 27.93 27.46 27.16 27.77 27.71 28.45 28.35 27.20 27.49 28.38 30.12 29.75 29.56 29.87 30.32 31.44 32.29 33.26 33.35 33.56
28.48 27.71 27.10 26.89 27.52 27.53 27.67 28.01 28.28 28.57 28.82 28.60 28.68 28.02 28.69 28.86 28.41 28.31 28.63 28.75 28.51 28.66 28.57 28.20 27.94 27.68 27.80 27.62 27.64 27.94 27.98 27.99 28.55 29.35 30.02 29.94 29.47 29.82 30.26 30.60 31.60 32.52 33.24
29.58 28.39 27.22 26.18 26.50 27.25 26.99 27.21 28.39 28.36 28.16 28.34 27.92 28.12 28.37 28.68 28.51 28.45 28.55 28.46 28.26 27.79 28.22 28.59 28.62 28.67 28.49 28.12 27.91 28.06 27.90 26.39 26.66 27.74 29.30 29.27 29.61 29.97 29.89 30.13 30.31 30.61 31.75
30.36 29.47 28.35 27.26 26.50 26.80 27.09 25.72 26.35 27.06 27.72 28.03 28.10 28.35 28.38 28.27 27.78 27.59 27.87 27.05 26.82 27.02 27.57 27.78 28.08 28.19 28.56 28.86 28.92 28.33 27.91 27.69 27.67 26.99 28.34 28.73 29.08 29.67 29.91 29.82 30.05 30.38 30.87
MSLP
1024.28 1023.98 1023.65 1023.26 1022.94 1022.69 1022.48 1022.19 1021.80 1021.51 1021.35 1021.20 1020.91 1020.55 1020.29 1020.21 1020.06 1019.92 1019.68 1019.43 1019.33 1019.07 1018.82 1018.73 1018.45 1018.17 1017.94 1017.73 1017.46 1017.37 1017.15 1016.83 1015.79 1015.63 1015.43 1015.00 1014.71 1014.48 1014.10 1014.00 1014.02 1014.02 1013.92
1024.20 1023.83 1023.42 1023.07 1022.82 1022.61 1022.34 1022.00 1021.54 1021.52 1021.39 1021.02 1020.48 1020.15 1019.95 1019.81 1019.69 1019.45 1019.22 1018.95 1018.83 1018.54 1018.23 1018.10 1017.81 1017.46 1017.10 1017.21 1017.16 1016.96 1016.68 1016.37 1016.16 1015.41 1015.19 1015.04 1014.72 1014.31 1013.99 1013.78 1013.55 1013.43 1013.32
1024.07 1023.74 1023.38 1023.07 1022.74 1022.49 1022.14 1021.73 1021.51 1021.30 1020.98 1020.51 1020.18 1019.84 1019.58 1019.28 1019.13 1018.97 1018.70 1018.32 1018.11 1017.89 1017.61 1017.39 1017.15 1016.99 1016.67 1016.41 1016.32 1016.38 1016.29 1015.95 1015.55 1015.33 1014.98 1014.74 1014.42 1014.19 1013.76 1013.36 1012.97 1012.80 1012.64
1024.06 1023.79 1023.34 1023.00 1022.62 1022.25 1021.92 1021.68 1021.43 1021.15 1020.87 1020.48 1020.10 1019.65 1019.34 1019.03 1018.77 1018.32 1017.97 1017.70 1017.46 1017.10 1016.87 1016.70 1016.47 1016.20 1015.94 1015.77 1015.55 1015.49 1015.57 1015.46 1015.19 1014.78 1014.35 1014.18 1013.96 1013.68 1013.50 1012.96 1012.49 1012.30 1012.16
1024.13 1023.70 1023.03 1022.66 1022.39 1022.13 1021.85 1021.57 1021.22 1021.01 1020.70 1020.34 1019.90 1019.38 1018.96 1018.59 1018.19 1017.85 1017.49 1017.12 1016.75 1016.37 1016.04 1015.76 1015.45 1015.17 1014.89 1014.71 1014.66 1014.56 1014.70 1014.74 1014.54 1014.29 1013.93 1013.55 1013.32 1013.18 1012.81 1012.45 1012.09 1011.91 1011.83
1024.15 1023.62 1022.85 1022.47 1022.30 1022.10 1021.78 1021.40 1021.02 1020.84 1020.57 1020.07 1019.68 1019.30 1018.85 1018.35 1017.85 1017.39 1017.05 1016.57 1016.15 1015.78 1015.44 1015.03 1014.66 1014.26 1013.95 1013.70 1013.60 1013.62 1013.83 1013.81 1013.84 1013.69 1013.38 1012.96 1012.73 1012.62 1012.43 1011.95 1011.70 1011.28 1011.56
1024.12 1023.61 1023.01 1022.56 1022.31 1022.07 1021.55 1021.25 1020.91 1020.64 1020.37 1019.99 1019.51 1019.03 1018.57 1018.01 1017.48 1016.98 1016.52 1016.00 1015.55 1015.06 1014.67 1014.30 1013.82 1013.48 1013.25 1013.01 1012.90 1012.77 1012.78 1012.86 1013.00 1013.11 1012.84 1012.27 1012.03 1011.93 1011.95 1011.42 1010.92 1010.95 1010.61
1024.25 1023.78 1023.15 1022.64 1022.49 1022.14 1021.56 1021.15 1020.69 1020.54 1020.35 1019.83 1019.31 1018.86 1018.32 1017.74 1017.09 1016.50 1015.93 1015.39 1014.74 1014.19 1013.79 1013.42 1013.02 1012.79 1012.74 1012.70 1012.39 1012.30 1012.08 1012.01 1011.94 1011.92 1011.85 1011.63 1011.60 1011.38 1011.60 1011.20 1010.51 1010.37 1010.67
1024.39 1024.00 1023.38 1022.87 1022.49 1022.17 1021.63 1021.17 1020.61 1020.47 1020.19 1019.70 1019.20 1018.64 1018.05 1017.37 1016.65 1015.93 1015.30 1014.65 1013.92 1013.27 1012.85 1012.67 1012.56 1012.46 1012.33 1012.10 1011.87 1011.72 1011.44 1011.00 1010.64 1010.51 1010.34 1010.24 1010.31 1010.48 1010.85 1010.91 1009.85 1009.94 1010.05
1024.77 1024.34 1023.77 1023.16 1022.72 1022.27 1021.87 1021.42 1020.79 1020.66 1020.18 1019.76 1019.12 1018.52 1017.97 1017.22 1016.32 1015.43 1014.80 1014.11 1013.38 1012.83 1012.47 1012.31 1012.34 1012.23 1012.03 1011.81 1011.40 1011.13 1010.74 1010.32 1009.92 1009.39 1008.86 1008.68 1008.76 1008.84 1009.01 1008.95 1008.90 1009.06 1009.49
1025.00 1024.58 1023.95 1023.52 1023.24 1022.87 1022.32 1021.87 1021.40 1020.95 1020.38 1019.80 1019.18 1018.48 1017.69 1017.07 1016.21 1015.13 1014.37 1013.74 1013.24 1012.84 1012.63 1012.55 1012.30 1012.04 1011.79 1011.61 1011.31 1010.89 1010.32 1009.46 1008.43 1007.63 1007.06 1006.70 1006.63 1006.97 1007.34 1007.97 1008.27 1008.38 1008.78
1025.05 1024.64 1024.19 1023.85 1023.47 1023.00 1022.59 1022.07 1021.67 1021.21 1020.70 1020.03 1019.32 1018.59 1017.74 1017.10 1016.33 1015.36 1014.47 1013.82 1013.43 1013.03 1012.81 1012.77 1012.43 1012.06 1011.97 1011.65 1011.25 1010.67 1009.75 1008.61 1007.42 1006.53 1005.97 1006.11 1006.13 1006.36 1006.83 1007.69 1008.07 1008.49 1008.72
1025.30 1024.90 1024.51 1024.15 1023.66 1023.24 1022.73 1022.32 1021.81 1021.36 1020.90 1020.37 1019.73 1019.02 1018.23 1017.45 1016.62 1015.74 1014.76 1014.07 1013.69 1013.27 1012.89 1012.76 1012.49 1012.16 1011.90 1011.63 1011.14 1010.38 1009.43 1008.55 1007.98 1007.48 1007.29 1007.31 1007.28 1007.40 1007.72 1008.15 1008.64 1009.05 1009.68
1025.64 1025.32 1024.95 1024.51 1024.02 1023.63 1023.26 1022.86 1022.40 1021.91 1021.37 1020.81 1020.17 1019.51 1018.79 1018.01 1017.24 1016.37 1015.39 1014.50 1013.88 1013.44 1013.05 1012.88 1012.64 1012.23 1011.96 1011.82 1011.29 1010.63 1009.96 1009.60 1009.21 1008.84 1008.49 1008.25 1008.26 1008.48 1008.72 1009.01 1009.36 1009.78 1010.22
1025.99 1025.70 1025.40 1024.99 1024.57 1024.11 1023.71 1023.36 1022.92 1022.55 1022.15 1021.55 1020.95 1020.26 1019.42 1018.69 1018.04 1017.13 1016.14 1015.34 1014.60 1014.01 1013.39 1013.07 1012.98 1012.68 1012.30 1011.96 1011.41 1010.82 1010.26 1009.79 1009.45 1009.34 1009.16 1009.22 1009.31 1009.34 1009.71 1009.89 1010.09 1010.44 1010.89
1026.55 1026.25 1026.03 1025.64 1025.20 1024.73 1024.21 1023.65 1023.17 1022.84 1022.46 1022.03 1021.50 1020.88 1020.08 1019.43 1018.40 1017.46 1016.58 1015.99 1015.22 1014.58 1014.03 1013.74 1013.39 1013.02 1012.74 1012.43 1011.96 1011.42 1010.86 1010.43 1010.18 1009.89 1009.84 1009.91 1010.18 1010.36 1010.64 1010.68 1010.74 1010.99 1011.25
1027.22 1027.06 1026.77 1026.42 1025.98 1025.45 1024.89 1024.34 1023.66 1023.08 1022.62 1022.29 1021.85 1021.25 1020.58 1019.86 1018.89 1018.00 1017.28 1016.72 1016.15 1015.27 1015.12 1014.84 1014.43 1013.95 1013.43 1012.88 1012.44 1012.04 1011.73 1011.31 1010.93 1010.72 1010.73 1010.78 1010.74 1010.74 1010.92 1011.01 1011.00 1011.11 1011.38
1027.73 1027.50 1027.25 1026.95 1026.55 1026.09 1025.62 1025.19 1024.68 1024.02 1023.32 1022.75 1022.28 1021.84 1021.09 1020.28 1019.59 1018.83 1018.03 1017.12 1016.50 1016.40 1016.41 1016.04 1015.49 1014.93 1014.34 1013.79 1013.28 1012.81 1012.30 1011.78 1011.41 1011.25 1011.14 1010.99 1010.88 1011.00 1011.08 1011.13 1011.21 1011.25 1011.25
1028.29 1027.96 1027.60 1027.34 1027.03 1026.61 1026.17 1025.68 1025.22 1024.70 1024.19 1023.65 1022.94 1022.19 1021.64 1021.04 1020.46 1019.80 1019.10 1018.49 1018.10 1017.61 1017.19 1016.73 1016.34 1015.85 1015.26 1014.68 1014.16 1013.60 1013.16 1012.70 1012.29 1011.95 1011.68 1011.37 1011.16 1011.03 1010.96 1010.94 1010.89 1010.93 1011.11
1028.73 1028.48 1028.15 1027.81 1027.42 1026.99 1026.63 1026.16 1025.69 1025.27 1024.79 1024.27 1023.73 1023.25 1022.52 1021.65 1020.94 1020.51 1020.12 1019.68 1019.18 1018.72 1018.16 1017.51 1016.90 1016.36 1015.85 1015.35 1014.83 1014.26 1013.74 1013.27 1012.80 1012.38 1012.02 1011.66 1011.35 1011.07 1010.91 1010.72 1010.67 1010.76 1010.77
1029.10 1028.86 1028.53 1028.15 1027.85 1027.50 1027.16 1026.70 1026.25 1025.76 1025.29 1024.87 1024.43 1023.93 1023.40 1022.73 1022.17 1021.62 1021.08 1020.58 1020.11 1019.57 1018.98 1018.36 1017.70 1017.18 1016.65 1016.03 1015.31 1014.77 1014.25 1013.71 1013.22 1012.79 1012.38 1011.93 1011.54 1011.17 1010.76 1010.52 1010.35 1010.26 1010.27
1029.50 1029.11 1028.78 1028.51 1028.16 1027.77 1027.35 1027.04 1026.58 1026.11 1025.65 1025.15 1024.65 1024.16 1023.74 1023.21 1022.71 1022.20 1021.64 1021.11 1020.63 1020.18 1019.67 1019.08 1018.38 1017.78 1017.20 1016.63 1015.98 1015.37 1014.82 1014.15 1013.58 1013.04 1012.47 1012.01 1011.59 1011.11 1010.70 1010.37 1010.08 1009.88 1009.87
1029.80 1029.55 1029.25 1028.94 1028.56 1028.17 1027.79 1027.41 1026.83 1026.41 1025.87 1025.36 1024.83 1024.30 1023.75 1023.35 1022.89 1022.42 1021.91 1021.39 1020.82 1020.28 1019.76 1019.22 1018.65 1018.05 1017.50 1017.03 1016.44 1015.91 1015.24 1014.57 1013.96 1013.23 1012.60 1012.01 1011.42 1010.94 1010.54 1010.13 1009.79 1009.56 1009.40
1029.99 1029.77 1029.51 1029.20 1028.84 1028.41 1028.00 1027.56 1027.07 1026.61 1025.99 1025.45 1025.01 1024.53 1024.02 1023.48 1022.97 1022.42 1021.91 1021.41 1020.86 1020.29 1019.76 1019.21 1018.63 1018.06 1017.50 1016.99 1016.49 1015.92 1015.38 1014.85 1014.20 1013.33 1012.62 1011.85 1011.23 1010.73 1010.26 1009.81 1009.36 1008.99 1008.78
1030.08 1029.89 1029.70 1029.47 1029.11 1028.70 1028.31 1027.89 1027.29 1026.76 1026.24 1025.77 1025.21 1024.66 1024.13 1023.55 1023.03 1022.51 1021.96 1021.38 1020.81 1020.25 1019.61 1019.07 1018.49 1017.87 1017.24 1016.62 1016.07 1015.56 1015.05 1014.51 1013.94 1013.31 1012.51 1011.80 1011.07 1010.48 1009.96 1009.47 1009.03 1008.67 1008.34
1030.07 1029.89 1029.68 1029.41 1029.14 1028.79 1028.39 1027.97 1027.44 1026.87 1026.39 1025.74 1025.19 1024.69 1024.15 1023.52 1023.02 1022.53 1022.00 1021.45 1020.81 1020.14 1019.49 1018.88 1018.27 1017.66 1016.95 1016.27 1015.70 1015.17 1014.55 1014.00 1013.40 1012.84 1012.23 1011.50 1010.81 1010.18 1009.66 1009.15 1008.70 1008.30 1007.89
Wind_Speed
6 6 6 5 6 5 4 4 3 4 6 6 6 8 6 6 6 5 6 6 6 7 6 6 9 8 6 6 6 7 8 7 7 5 6 9 9 8 7 5 7 8 8
5 5 6 5 5 5 4 5 5 5 6 6 7 7 6 5 7 6 7 6 7 8 8 6 8 8 8 8 6 8 9 10 7 11 7 6 10 9 8 9 7 8 8
5 6 6 5 5 5 5 5 5 5 6 6 8 7 7 6 6 7 7 7 7 8 8 8 8 9 8 7 9 7 7 8 8 8 8 7 8 8 8 7 8 9 7
5 6 5 5 5 6 5 6 5 5 6 6 7 7 6 7 7 8 7 6 9 8 7 7 10 10 10 10 9 9 8 8 9 10 7 6 6 8 7 7 7 6 6
5 6 6 5 5 5 6 6 5 5 6 5 7 8 8 6 5 7 7 8 9 9 9 10 11 13 20 16 9 9 9 9 8 9 9 8 7 8 8 6 7 6 5
5 7 7 5 4 6 6 6 5 5 7 7 8 9 10 6 13 13 12 8 8 8 12 12 10 16 16 21 21 20 13 11 11 9 8 10 12 9 8 8 7 4 4
6 7 8 7 6 6 5 5 6 4 7 7 8 8 9 8 14 15 16 8 8 9 10 10 10 8 11 10 14 15 16 20 17 11 12 10 11 11 9 10 9 9 7
7 8 8 8 8 9 8 8 6 4 6 7 9 9 9 8 15 17 15 10 9 10 10 10 10 9 8 7 7 9 10 12 15 12 14 14 14 13 10 11 10 10 2
9 8 9 8 8 9 9 10 8 7 7 8 8 8 10 10 16 19 15 10 9 10 9 8 6 6 9 12 9 9 12 10 12 20 21 25 23 23 20 12 8 9 6
9 9 10 11 9 9 10 11 9 7 7 6 10 9 11 11 17 20 16 7 9 6 6 5 6 6 9 11 4 5 6 8 8 11 11 19 23 21 25 18 9 11 7
5 8 10 10 10 10 9 8 10 8 9 7 9 9 10 10 13 21 21 7 6 3 3 2 2 7 8 9 8 5 7 9 14 12 9 8 11 11 9 11 9 8 3
8 6 9 8 6 7 9 8 10 9 9 9 10 8 9 11 16 19 22 14 9 3 3 2 3 6 8 10 9 11 14 13 5 3 4 7 7 7 7 7 7 7 6
9 9 9 8 9 9 9 10 9 9 7 8 8 8 9 9 9 20 18 15 9 4 3 5 4 6 7 6 11 15 10 8 5 7 7 6 4 6 7 8 11 12 10
8 8 8 9 10 9 7 7 7 8 9 8 9 9 9 10 10 10 9 9 8 5 4 4 5 5 5 5 6 7 6 5 4 4 4 4 4 4 6 3 4 3 3
8 7 9 7 9 8 8 6 8 8 9 9 8 8 8 10 11 13 11 9 8 6 5 3 3 3 3 5 5 5 5 5 4 3 5 5 6 5 4 5 3 3 3
8 8 8 7 7 7 8 7 9 10 13 16 20 14 9 16 21 21 18 16 19 14 6 6 6 5 4 4 4 5 5 5 4 4 5 4 3 3 3 2 2 2 2
9 9 8 9 8 9 9 9 10 11 13 17 21 21 23 22 24 23 20 16 17 14 9 8 7 7 5 6 5 4 4 4 6 3 2 2 2 2 1 1 0 2 1
8 9 7 6 7 7 7 7 7 9 10 11 16 18 22 21 22 24 22 13 12 11 8 7 8 8 8 7 7 7 6 6 5 5 3 3 2 1 1 2 2 2 2
7 6 6 7 7 7 7 8 7 8 8 8 10 12 16 22 22 22 22 11 10 10 9 8 7 7 7 7 7 7 7 6 4 4 4 3 3 3 3 3 3 4 3
6 9 8 6 6 7 7 7 7 8 8 8 8 10 10 13 13 13 11 10 10 9 10 10 9 8 7 7 7 6 6 7 7 5 5 4 3 3 3 3 3 3 4
4 5 8 6 7 6 6 7 7 7 8 10 7 8 13 8 9 9 10 11 10 10 10 10 9 9 9 9 8 8 7 6 5 6 6 5 5 5 4 3 4 4 4
4 4 4 5 5 5 5 5 6 6 8 7 7 8 11 7 7 8 8 8 7 7 7 8 8 9 9 9 9 9 9 8 8 7 7 6 6 6 5 4 4 3 4
4 4 4 4 4 6 5 5 6 6 7 7 7 7 7 6 7 7 7 7 8 7 7 7 7 7 7 9 9 9 9 9 10 9 8 7 6 6 6 6 6 5 5
4 4 4 4 4 5 6 8 7 8 7 7 8 9 8 7 7 8 7 7 7 7 7 7 7 9 8 6 6 8 8 9 9 9 12 9 8 8 6 7 7 7 7
3 4 4 4 4 5 5 6 7 8 9 9 9 8 8 8 7 8 7 8 7 8 9 8 7 10 11 14 11 11 12 14 11 12 8 11 10 10 8 7 8 7 8
3 3 3 3 4 4 5 5 7 6 7 8 9 8 8 8 10 10 9 11 10 10 11 8 10 14 15 11 11 14 14 13 13 14 10 9 8 8 7 8 9 7 8
Wind_Direction
325 309 308 314 324 329 325 309 303 293 295 306 298 288 279 279 280 277 265 268 260 262 257 247 259 254 256 259 265 262 267 273 253 249 265 285 294 291 286 272 238 239 240
324 328 335 332 342 349 342 315 325 324 316 299 297 294 285 295 293 280 279 274 269 268 263 252 252 266 250 242 254 258 261 261 269 265 254 254 272 280 265 265 254 241 232
352 353 345 342 326 335 296 306 318 308 296 306 308 299 295 282 290 287 271 272 279 273 263 261 263 263 266 248 231 242 257 269 252 253 265 252 257 269 277 271 247 241 224
355 341 319 335 319 303 301 305 304 327 305 316 314 315 306 302 284 278 280 277 271 258 257 258 267 253 253 258 244 227 238 252 258 261 250 247 256 262 261 261 254 229 230
349 318 322 312 327 327 334 310 307 322 303 321 314 312 309 281 279 287 291 289 289 274 263 262 252 250 254 245 248 231 223 242 252 250 256 240 247 245 237 245 236 229 214
338 317 328 321 342 339 322 322 308 324 328 322 333 323 322 315 302 307 297 285 278 274 289 285 271 271 270 267 256 246 227 230 245 260 247 249 244 249 247 244 232 221 197
343 327 335 344 344 319 308 328 332 321 326 326 314 309 314 301 312 319 312 291 280 271 275 271 272 267 269 255 258 253 250 237 235 246 260 253 243 244 250 250 226 227 219
342 340 336 343 341 327 326 320 322 339 328 319 319 318 307 306 308 308 304 290 273 268 269 266 266 271 273 281 251 252 250 249 249 239 241 247 250 250 247 259 233 204 194
356 343 335 351 341 331 334 333 325 342 331 326 324 312 318 309 304 312 309 299 286 279 272 260 265 274 274 282 273 260 254 246 244 244 242 245 244 246 249 256 209 185 175
359 350 357 356 347 343 342 350 332 353 330 321 320 320 315 315 313 311 316 309 295 298 307 291 281 270 281 298 270 274 267 263 253 253 239 239 236 244 249 214 192 181 171
349 357 355 2 1 357 354 2 354 352 341 333 322 321 313 317 321 326 337 327 316 319 349 6 307 292 284 315 311 290 277 281 277 255 232 218 212 186 179 184 178 164 126
349 2 356 358 348 351 4 0 2 359 350 341 335 331 327 337 338 339 345 1 359 337 341 325 312 330 338 328 319 297 295 289 303 3 31 59 73 83 86 103 97 82 55
7 360 354 355 355 359 358 5 2 1 356 348 345 339 335 337 339 341 339 354 20 351 323 337 329 334 315 317 325 318 323 348 7 37 32 40 40 57 78 84 80 82 72
8 4 359 5 359 4 3 3 360 4 3 360 355 351 343 345 345 342 342 352 0 355 345 348 343 329 340 340 326 329 331 340 359 19 20 21 38 48 55 54 77 65 77
7 8 7 4 360 2 6 0 4 4 356 0 358 350 345 353 348 346 356 1 2 353 339 356 14 0 350 347 338 325 338 346 16 15 38 44 43 43 35 29 46 59 88
13 7 8 3 0 1 4 360 4 7 9 12 9 9 359 358 356 2 6 9 8 1 15 14 7 7 2 355 340 338 347 360 4 10 22 24 45 59 66 40 74 92 95
17 16 10 15 8 4 4 3 358 359 4 15 13 7 7 7 6 6 8 9 19 20 18 8 7 2 351 354 352 350 348 340 336 10 19 7 357 57 52 49 48 124 128
17 11 20 11 9 3 5 3 360 359 359 360 8 4 4 8 11 11 9 10 20 21 16 4 356 354 354 355 357 358 354 355 0 354 337 323 313 247 230 223 216 235 185
20 12 19 22 14 11 12 15 11 6 6 2 360 7 7 9 11 13 13 18 10 10 6 3 358 355 353 350 348 347 346 345 339 341 335 316 301 242 228 225 218 192 182
15 11 20 15 2 15 12 9 4 8 5 359 1 1 354 6 13 11 9 7 7 3 359 355 357 355 352 350 347 346 342 343 341 339 335 329 322 296 272 237 208 201 209
5 15 22 17 13 8 4 0 5 359 10 12 358 353 351 3 2 2 3 9 2 356 354 351 351 359 354 349 346 344 341 339 339 334 328 322 319 315 298 275 243 222 220
357 349 0 12 2 352 356 352 354 353 3 356 349 357 356 1 358 354 354 353 351 351 347 346 347 349 348 346 343 350 344 337 334 329 320 315 311 303 296 284 269 233 224
8 359 353 344 345 340 343 342 347 350 352 354 350 346 353 347 350 352 344 340 341 338 335 334 332 337 343 343 343 342 336 336 330 322 314 307 301 297 293 281 268 256 240
1 358 353 345 348 348 359 357 354 342 342 339 344 352 340 337 337 337 333 334 339 333 328 326 321 320 322 329 327 326 328 325 323 320 322 309 300 296 286 278 270 258 251
352 350 354 349 338 336 333 343 340 342 344 345 346 343 336 338 336 337 332 335 332 331 325 323 318 316 317 315 305 310 317 317 317 317 319 314 302 293 288 285 283 277 270
336 339 332 326 325 328 327 325 320 324 332 336 337 330 330 330 338 340 339 341 336 331 326 325 322 322 316 311 309 312 311 313 318 316 317 313 312 310 303 297 291 284 273